Location: Dampvalley
(47.9094°N, 6.1967°E)
Time: 20:07:28
(UTC+00:00)

Iridium 51 - Pass Details

Date: 05 March 2021
Orbit: 456 x 740 km, 86.4° (Epoch: 21 April)

Event Time Altitude Azimuth Distance (km) Brightness Sun altitude
Rises 04:55:51 0° 354° (N) 2,785 7.9 -12.9°
Reaches altitude 10° 04:58:08 10° 352° (N) 1,835 7.0 -12.6°
Maximum altitude 05:02:05 67° 269° (W) 566 4.1 -11.9°
Drops below altitude 10° 05:05:42 10° 187° (S) 1,680 6.7 -11.3°
Sets 05:07:43 0° 185° (S) 2,526 7.6 -11.0°
